Location: Demmingen
(48.6757°N, 10.4375°E)
Time: 00:03:53
(UTC+00:00)

CZ-2C R/B - Pass Details

Date: 05 August 2024
Orbit: 703 x 904 km, 98.2° (Epoch: 07 September)

Event Time Altitude Azimuth Distance (km) Brightness Sun altitude
Rises 23:38:23 0° 35° (NE) 3,157 7.1 -24.6°
Reaches altitude 10° 23:43:41 10° 84° (E) 2,279 5.6 -24.6°
Maximum altitude 23:43:50 10° 85° (E) 2,279 5.5 -24.6°
Drops below altitude 10° 23:43:58 10° 87° (E) 2,282 5.5 -24.6°
Enters shadow 23:45:42 - 106° (ESE) 2,424 5.5 -24.5°
